Hourly Data Report for August 20, 2021

CAMPBELL RIVER A
BRITISH COLUMBIA
Current Station Operator: NAVCAN

49°57'07.000" N
125°16'23.000" W
108.80 m
1021270
YBL

Download Data

Hourly Data (August 2021)
Hourly Data Report for August 20, 2021
TIME
LST
Temp Definition
°C
Dew Point Definition
°C
Rel Hum Definition
%
Precip. Amount Definition
mm

Wind Dir Definition
10's deg

Wind Spd Definition
km/h
Visibility Definition
km
Stn Press Definition
kPa
Hmdx Definition


Wind Chill Definition


Weather Definition


00:00 14.3 9.7 74 LegendMM 30 8 LegendMM 100.33     LegendNANA
01:00 11.8 9.3 85 LegendMM 28 5 LegendMM 100.30     LegendNANA
02:00 13.1 9.9 81 LegendMM 27 9 LegendMM 100.28     LegendNANA
03:00 11.9 10.0 88 LegendMM 31 9 LegendMM 100.27     LegendNANA
04:00 11.5 9.8 89 LegendMM 28 7 LegendMM 100.25     LegendNANA
05:00 12.5 10.2 86 LegendMM 29 10 LegendMM 100.22     LegendNANA
06:00 11.4 9.9 90 LegendMM 29 5 LegendMM 100.22     LegendNANA
07:00 14.8 10.6 76 LegendMM 31 8 LegendMM 100.22     LegendNANA
08:00 16.8 10.2 65 LegendMM 31 7 LegendMM 100.19     LegendNANA
09:00 18.0 10.5 61 LegendMM 30 7 LegendMM 100.15     LegendNANA
10:00 18.2 10.3 59 LegendMM 30 4 LegendMM 100.12     LegendNANA
11:00 19.5 10.6 56 LegendMM 36 9 LegendMM 100.09     LegendNANA
12:00 20.2 10.6 54 LegendMM 32 16 LegendMM 100.05     LegendNANA
13:00 21.2 11.3 53 LegendMM 31 11 LegendMM 100.02     LegendNANA
14:00 21.5 11.3 52 LegendMM 2 5 LegendMM 99.99     LegendNANA
15:00 21.6 11.2 51 LegendMM 2 9 LegendMM 99.97     LegendNANA
16:00 21.2 11.1 52 LegendMM 3 10 LegendMM 99.97     LegendNANA
17:00 20.4 11.3 55 LegendMM 34 5 LegendMM 99.94     LegendNANA
18:00 20.9 11.2 53 LegendMM 2 6 LegendMM 99.88     LegendNANA
19:00 20.1 11.5 57 LegendMM 36 4 LegendMM 99.87     LegendNANA
20:00 15.7 11.6 76 LegendMM 30 5 LegendMM 99.93     LegendNANA
21:00 14.1 11.6 85 LegendMM 28 5 LegendMM 99.94     LegendNANA
22:00 14.2 10.8 80 LegendMM 28 8 LegendMM 99.96     LegendNANA
23:00 11.8 10.6 93 LegendMM 30 3 LegendMM 99.93     LegendNANA

Notes on Data Quality.

Legend

  • E = Estimated
  • M = Missing
  • NA = Not Available*
  • [empty] = Indicates an unobserved value
Date modified: